|
BREEZE-M DEB (TANK) - Orbit
|
The Jewett Observatory;
18:51:05
| Home | Info | Passes |
|
View from above orbital plane
|
View from above satellite
|
Ground track
|
The orbit data is extracted from the following two-line orbital elements,
1 29649U 06056B 13143.50484277 .00002029 00000-0 52637-3 0 6880
2 29649 049.4881 230.5308 5426241 322.3759 034.5164 04.90373259114070
| Epoch (UTC): | 23 May 2013 12:06:58 |
| Eccentricity: | 0.5426241 |
| inclination: | 49.4881° |
| perigee height: | 315 km |
| apogee height: | 16197 km |
| right ascension of ascending node: | 230.5308° |
| argument of perigee: | 322.3759° |
| revolutions per day: | 4.90373259 |
| mean anomaly at epoch: | 34.5164° |
| orbit number at epoch: | 11407 |
The dashed part of the orbit path shows where the satellite is in the earth's shadow,
|
|